START_TIME,STEP,MOV.,M15,t_acc.,M20,t_acc.
1979-03-03 00:00:33.380 ,3,1,0.,24.0,0.,24.0
1979-03-03 00:00:57.380 ,4,1,0.,24.0,0.,24.0
1979-03-03 00:01:21.380 ,5,1,0.,24.0,0.,24.0
1979-03-03 00:01:45.380 ,6,1,0.,24.0,0.,24.0
1979-03-03 00:02:09.380 ,7,1,0.,24.0,0.,24.0
1979-03-03 00:02:33.380 ,7,1,0.,24.0,0.,24.0
1979-03-03 00:02:57.380 ,6,1,0.,24.0,0.,24.0
1979-03-03 00:03:21.380 ,5,1,0.,24.0,0.,24.0
1979-03-03 00:03:45.380 ,4,1,0.,24.0,0.,24.0
1979-03-03 00:04:09.380 ,3,1,0.,24.0,0.,24.0
1979-03-03 00:04:33.380 ,2,1,0.,24.0,0.,24.0
1979-03-03 00:04:57.380 ,1,1,0.,24.0,0.,24.0
1979-03-03 00:05:21.380 ,0,1,0.,24.0,0.,24.0
1979-03-03 00:05:45.380 ,0,1,0.,24.0,0.,24.0
1979-03-03 00:06:09.380 ,1,1,0.,24.0,0.,24.0
1979-03-03 00:06:33.380 ,2,1,0.,24.0,0.,24.0
1979-03-03 00:06:57.380 ,3,1,0.,24.0,0.,24.0
1979-03-03 00:07:21.380 ,4,1,0.,24.0,0.,24.0
1979-03-03 00:07:45.380 ,5,1,0.,24.0,0.,24.0
1979-03-03 00:08:09.380 ,6,1,0.,24.0,0.,24.0
1979-03-03 00:08:33.380 ,7,1,0.,24.0,0.,24.0
1979-03-03 00:08:57.380 ,7,1,0.,24.0,0.,24.0
1979-03-03 00:09:21.380 ,6,1,0.,24.0,0.,24.0
1979-03-03 00:09:45.380 ,5,1,0.,24.0,0.,24.0
1979-03-03 00:10:09.380 ,4,1,0.,24.0,0.,24.0
1979-03-03 00:10:33.380 ,3,1,0.,24.0,0.,24.0
1979-03-03 00:10:57.380 ,2,1,0.,24.0,0.,24.0
1979-03-03 00:11:21.380 ,1,1,0.,24.0,0.,24.0
1979-03-03 00:11:45.380 ,0,1,0.,24.0,0.,24.0
1979-03-03 00:12:09.380 ,0,1,0.,24.0,0.,24.0
1979-03-03 00:12:33.380 ,1,1,0.,24.0,0.,24.0
1979-03-03 00:12:57.380 ,2,1,0.,24.0,0.,24.0
1979-03-03 00:13:21.380 ,3,1,0.,24.0,0.,24.0
1979-03-03 00:13:45.380 ,4,1,0.,24.0,0.,24.0
1979-03-03 00:14:09.380 ,5,1,0.,24.0,0.,24.0
1979-03-03 00:14:33.380 ,6,1,0.,24.0,0.,24.0
1979-03-03 00:14:57.380 ,7,1,0.,24.0,0.,24.0
1979-03-03 00:15:21.380 ,7,1,0.,24.0,0.,24.0
1979-03-03 00:15:45.380 ,6,1,0.,24.0,0.,24.0
1979-03-03 00:16:09.380 ,5,1,0.,24.0,0.,24.0
1979-03-03 00:16:33.380 ,4,1,0.,24.0,0.,24.0
1979-03-03 00:16:57.380 ,3,1,0.,24.0,0.,24.0
1979-03-03 00:17:21.380 ,2,1,0.,24.0,0.,24.0
1979-03-03 00:17:45.380 ,1,1,0.,24.0,0.,24.0
1979-03-03 00:18:09.380 ,0,1,0.,24.0,0.,24.0
1979-03-03 00:18:33.380 ,0,1,0.,24.0,0.,24.0
1979-03-03 00:18:57.380 ,1,1,0.,24.0,0.,24.0
1979-03-03 00:19:21.380 ,2,1,0.,24.0,0.,24.0
1979-03-03 00:19:45.380 ,3,1,0.,24.0,0.,24.0
1979-03-03 00:20:09.380 ,4,1,0.,24.0,0.,24.0
1979-03-03 00:20:33.380 ,5,1,0.,24.0,0.,24.0
1979-03-03 00:20:57.380 ,6,1,0.,24.0,0.,24.0
1979-03-03 00:21:21.380 ,7,1,0.,24.0,0.,24.0
1979-03-03 00:21:45.380 ,7,1,0.,24.0,0.,24.0
1979-03-03 00:22:09.380 ,6,1,0.,24.0,0.,24.0
1979-03-03 00:22:33.380 ,5,1,0.,24.0,0.,24.0
1979-03-03 00:22:57.380 ,4,1,0.,24.0,0.,24.0
1979-03-03 00:23:21.380 ,3,1,0.,24.0,0.,24.0
1979-03-03 00:23:45.380 ,2,1,0.,24.0,0.,24.0
1979-03-03 00:24:09.380 ,1,1,0.,24.0,0.,24.0
1979-03-03 00:24:33.380 ,0,1,0.,24.0,0.,24.0
1979-03-03 00:24:57.380 ,0,1,0.,24.0,0.,24.0
1979-03-03 00:25:21.380 ,1,1,0.,24.0,0.,24.0
1979-03-03 00:25:45.380 ,0,0,,0,,0
1979-03-03 00:26:09.380 ,0,0,0.,24.0,0.,24.0
1979-03-03 00:26:33.380 ,4,1,0.,24.0,0.,24.0
1979-03-03 00:26:57.380 ,5,1,0.,24.0,0.,24.0
1979-03-03 00:27:21.380 ,6,1,0.,24.0,0.,24.0
1979-03-03 00:27:45.380 ,7,1,0.,24.0,0.,24.0
1979-03-03 00:28:09.380 ,7,1,0.,24.0,0.,24.0
1979-03-03 00:28:33.380 ,6,1,0.,24.0,0.,24.0
1979-03-03 00:28:57.380 ,5,1,0.,24.0,0.,24.0
1979-03-03 00:29:21.380 ,4,1,0.,24.0,0.,24.0
1979-03-03 00:29:45.380 ,3,1,0.,24.0,0.,24.0
1979-03-03 00:30:09.380 ,2,1,0.,24.0,0.,24.0
1979-03-03 00:30:33.380 ,1,1,0.,24.0,0.,24.0
1979-03-03 00:30:57.380 ,0,1,0.,24.0,0.,24.0
1979-03-03 00:31:21.380 ,0,1,0.,24.0,0.,24.0
1979-03-03 00:31:45.380 ,1,1,0.,24.0,0.,24.0
1979-03-03 00:32:09.380 ,2,1,0.,24.0,0.,24.0
1979-03-03 00:32:33.380 ,3,1,0.,24.0,0.,24.0
1979-03-03 00:32:57.380 ,4,1,0.,24.0,0.,24.0
1979-03-03 00:33:21.380 ,5,1,0.,24.0,0.,24.0
1979-03-03 00:33:45.380 ,6,1,0.,24.0,0.,24.0
1979-03-03 00:34:09.380 ,7,1,0.,24.0,0.,24.0
1979-03-03 00:34:33.380 ,7,1,0.,24.0,0.,24.0
1979-03-03 00:34:57.380 ,6,1,0.,24.0,0.,24.0
1979-03-03 00:35:21.380 ,5,1,0.,24.0,0.,24.0
1979-03-03 00:35:45.380 ,4,1,0.,24.0,0.,24.0
1979-03-03 00:36:09.380 ,3,1,0.,24.0,0.,24.0
1979-03-03 00:36:33.380 ,2,1,0.,24.0,0.,24.0
1979-03-03 00:36:57.380 ,1,1,0.,24.0,0.,24.0
1979-03-03 00:37:21.380 ,0,1,0.,24.0,0.,24.0
1979-03-03 00:37:45.380 ,0,1,0.,24.0,0.,24.0
1979-03-03 00:38:09.380 ,1,1,0.,24.0,0.,24.0
1979-03-03 00:38:33.380 ,2,1,0.,24.0,0.,24.0
1979-03-03 00:38:57.380 ,3,1,0.,24.0,0.,24.0
1979-03-03 00:39:21.380 ,4,1,0.,24.0,0.,24.0
1979-03-03 00:39:45.380 ,5,1,0.,24.0,0.,24.0
1979-03-03 00:40:09.380 ,6,1,0.,24.0,0.,24.0
1979-03-03 00:40:33.380 ,7,1,0.,24.0,0.,24.0
1979-03-03 00:40:57.380 ,7,1,0.,24.0,0.,24.0
1979-03-03 00:41:21.380 ,6,1,0.,24.0,0.,24.0
1979-03-03 00:41:45.380 ,5,1,0.,24.0,0.,24.0
1979-03-03 00:42:09.380 ,4,1,0.,24.0,0.,24.0
1979-03-03 00:42:33.380 ,3,1,0.,24.0,0.,24.0
1979-03-03 00:42:57.380 ,2,1,0.,24.0,0.,24.0
1979-03-03 00:43:21.380 ,1,1,0.,24.0,0.,24.0
1979-03-03 00:43:45.380 ,0,1,0.,24.0,0.,24.0
1979-03-03 00:44:09.380 ,0,1,0.,24.0,0.,24.0
1979-03-03 00:44:33.380 ,1,1,1.,24.0,0.,24.0
1979-03-03 00:44:57.380 ,2,1,0.,24.0,0.,24.0
1979-03-03 00:45:21.380 ,3,1,0.,24.0,0.,24.0
1979-03-03 00:45:45.380 ,4,1,0.,24.0,0.,24.0
1979-03-03 00:46:09.380 ,5,1,0.,24.0,0.,24.0
1979-03-03 00:46:33.380 ,6,1,0.,24.0,0.,24.0
1979-03-03 00:46:57.380 ,7,1,0.,24.0,0.,24.0
1979-03-03 00:47:21.380 ,7,1,0.,24.0,0.,24.0
1979-03-03 00:47:45.380 ,6,1,0.,24.0,0.,24.0
1979-03-03 00:48:09.380 ,5,1,0.,24.0,0.,24.0
1979-03-03 00:48:33.380 ,4,1,0.,24.0,0.,24.0
1979-03-03 00:48:57.380 ,3,1,0.,24.0,0.,24.0
1979-03-03 00:49:21.380 ,2,1,0.,24.0,0.,24.0
1979-03-03 00:49:45.380 ,1,1,0.,24.0,0.,24.0
1979-03-03 00:50:09.380 ,0,1,0.,24.0,0.,24.0
1979-03-03 00:50:33.380 ,0,1,0.,24.0,0.,24.0
1979-03-03 00:50:57.380 ,1,1,0.,24.0,0.,24.0
1979-03-03 00:51:21.380 ,2,1,0.,24.0,0.,24.0
1979-03-03 00:51:45.380 ,3,1,0.,24.0,0.,24.0
1979-03-03 00:52:09.380 ,4,1,0.,24.0,0.,24.0
1979-03-03 00:52:33.380 ,5,1,0.,24.0,0.,24.0
1979-03-03 00:52:57.380 ,6,1,0.,24.0,0.,24.0
1979-03-03 00:53:21.380 ,7,1,0.,24.0,0.,24.0
1979-03-03 00:53:45.380 ,7,1,0.,24.0,0.,24.0
1979-03-03 00:54:09.380 ,6,1,0.,24.0,0.,24.0
1979-03-03 00:54:33.380 ,5,1,0.,24.0,0.,24.0
1979-03-03 00:54:57.380 ,4,1,0.,24.0,0.,24.0
1979-03-03 00:55:21.380 ,3,1,0.,24.0,0.,24.0
1979-03-03 00:55:45.380 ,2,1,0.,24.0,0.,24.0
1979-03-03 00:56:09.380 ,1,1,0.,24.0,0.,24.0
1979-03-03 00:56:33.380 ,0,1,0.,24.0,0.,24.0
1979-03-03 00:56:57.380 ,0,1,0.,24.0,0.,24.0
1979-03-03 00:57:21.380 ,1,1,0.,24.0,0.,24.0
1979-03-03 00:57:45.380 ,2,1,0.,24.0,0.,24.0
1979-03-03 00:58:09.380 ,3,1,0.,24.0,0.,24.0
1979-03-03 00:58:33.380 ,4,1,0.,24.0,0.,24.0
1979-03-03 00:58:57.380 ,5,1,0.,24.0,0.,24.0
1979-03-03 00:59:21.380 ,6,1,0.,24.0,0.,24.0
1979-03-03 00:59:45.380 ,7,1,0.,24.0,0.,24.0
1979-03-03 01:00:09.380 ,7,1,0.,24.0,0.,24.0
1979-03-03 01:00:33.380 ,6,1,0.,24.0,0.,24.0
1979-03-03 01:00:57.380 ,5,1,0.,24.0,0.,24.0
1979-03-03 01:01:21.380 ,4,1,0.,24.0,0.,24.0
1979-03-03 01:01:45.380 ,3,1,0.,24.0,0.,24.0
1979-03-03 01:02:09.380 ,2,1,0.,24.0,0.,24.0
1979-03-03 01:02:33.380 ,1,1,0.,24.0,0.,24.0
1979-03-03 01:02:57.380 ,0,1,0.,24.0,0.,24.0
1979-03-03 01:03:21.380 ,0,1,0.,24.0,0.,24.0
1979-03-03 01:03:45.380 ,1,1,0.,24.0,0.,24.0
1979-03-03 01:04:09.380 ,2,1,0.,24.0,0.,24.0
1979-03-03 01:04:33.380 ,3,1,0.,24.0,0.,24.0
1979-03-03 01:04:57.380 ,4,1,0.,24.0,0.,24.0
1979-03-03 01:05:21.380 ,5,1,0.,24.0,0.,24.0
1979-03-03 01:05:45.380 ,6,1,0.,24.0,0.,24.0
1979-03-03 01:06:09.380 ,7,1,0.,24.0,0.,24.0
1979-03-03 01:06:33.380 ,7,1,0.,24.0,0.,24.0
1979-03-03 01:06:57.380 ,6,1,0.,24.0,0.,24.0
1979-03-03 01:07:21.380 ,5,1,0.,24.0,0.,24.0
1979-03-03 01:07:45.380 ,4,1,0.,24.0,0.,24.0
1979-03-03 01:08:09.380 ,3,1,0.,24.0,0.,24.0
1979-03-03 01:08:33.380 ,2,1,0.,24.0,0.,24.0
1979-03-03 01:08:57.380 ,1,1,0.,24.0,0.,24.0
1979-03-03 01:09:21.380 ,0,1,0.,24.0,0.,24.0
1979-03-03 01:09:45.380 ,0,1,0.,24.0,0.,24.0
1979-03-03 01:10:09.380 ,1,1,0.,24.0,0.,24.0
1979-03-03 01:10:33.380 ,2,1,0.,24.0,0.,24.0
1979-03-03 01:10:57.380 ,3,1,0.,24.0,0.,24.0
1979-03-03 01:11:21.380 ,4,1,0.,24.0,0.,24.0
1979-03-03 01:11:45.380 ,5,1,0.,24.0,0.,24.0
1979-03-03 01:12:09.380 ,6,1,0.,24.0,0.,24.0
1979-03-03 01:12:33.380 ,7,1,0.,24.0,0.,24.0
1979-03-03 01:12:57.380 ,7,1,0.,24.0,0.,24.0
1979-03-03 01:13:21.380 ,6,1,0.,24.0,0.,24.0
1979-03-03 01:13:45.380 ,5,1,0.,24.0,0.,24.0
1979-03-03 01:14:09.380 ,4,1,0.,24.0,0.,24.0
1979-03-03 01:14:33.380 ,3,1,0.,24.0,0.,24.0
1979-03-03 01:14:57.380 ,0,0,0.,24.0,0.,24.0
1979-03-03 01:15:21.380 ,1,1,0.,24.0,0.,24.0
1979-03-03 01:15:45.380 ,0,0,,0,,0
1979-03-03 01:16:09.980 ,0,1,0.,24.0,0.,24.0
1979-03-03 01:16:33.380 ,1,1,0.,24.0,0.,24.0
1979-03-03 01:16:57.380 ,2,1,0.,24.0,0.,24.0
1979-03-03 01:17:21.380 ,3,1,0.,24.0,0.,24.0
1979-03-03 01:17:45.380 ,4,1,0.,24.0,0.,24.0
1979-03-03 01:18:09.380 ,5,1,0.,24.0,0.,24.0
1979-03-03 01:18:33.380 ,6,1,0.,24.0,0.,24.0
1979-03-03 01:18:57.380 ,0,0,,0,,0
1979-03-03 01:19:21.380 ,7,1,0.,24.0,0.,24.0
1979-03-03 01:19:45.380 ,6,1,0.,24.0,0.,24.0
1979-03-03 01:20:09.380 ,5,1,0.,24.0,0.,24.0
1979-03-03 01:20:33.380 ,4,1,0.,24.0,0.,24.0
1979-03-03 01:20:57.380 ,3,1,0.,24.0,0.,24.0
1979-03-03 01:21:21.380 ,2,1,0.,24.0,0.,24.0
1979-03-03 01:21:45.380 ,1,1,0.,24.0,0.,24.0
1979-03-03 01:22:09.380 ,0,1,0.,24.0,0.,24.0
1979-03-03 01:22:33.380 ,0,1,0.,24.0,0.,24.0
1979-03-03 01:22:57.380 ,1,1,0.,24.0,0.,24.0
1979-03-03 01:23:21.380 ,2,1,0.,24.0,0.,24.0
1979-03-03 01:23:45.380 ,3,1,0.,24.0,0.,24.0
1979-03-03 01:24:09.380 ,4,1,0.,24.0,0.,24.0
1979-03-03 01:24:33.380 ,5,1,0.,24.0,0.,24.0
1979-03-03 01:24:57.380 ,6,1,0.,24.0,0.,24.0
1979-03-03 01:25:21.380 ,7,1,0.,24.0,0.,24.0
1979-03-03 01:25:45.380 ,7,1,0.,24.0,0.,24.0
1979-03-03 01:26:09.380 ,6,1,0.,24.0,0.,24.0
1979-03-03 01:26:33.380 ,5,1,0.,24.0,0.,24.0
1979-03-03 01:26:57.380 ,4,1,0.,24.0,0.,24.0
1979-03-03 01:27:21.380 ,3,1,0.,24.0,0.,24.0
1979-03-03 01:27:45.380 ,2,1,0.,24.0,0.,24.0
1979-03-03 01:28:09.380 ,1,1,0.,24.0,0.,24.0
1979-03-03 01:28:33.380 ,0,1,0.,24.0,0.,24.0
1979-03-03 01:28:57.380 ,0,1,0.,24.0,0.,24.0
1979-03-03 01:29:21.380 ,1,1,0.,24.0,0.,24.0
1979-03-03 01:29:45.380 ,2,1,0.,24.0,0.,24.0
1979-03-03 01:30:09.380 ,3,1,0.,24.0,0.,24.0
1979-03-03 01:30:33.380 ,4,1,0.,24.0,0.,24.0
1979-03-03 01:30:57.380 ,5,1,0.,24.0,0.,24.0
1979-03-03 01:31:21.380 ,6,1,0.,24.0,0.,24.0
1979-03-03 01:31:45.380 ,7,1,0.,24.0,0.,24.0
1979-03-03 01:32:09.380 ,7,1,0.,24.0,0.,24.0
1979-03-03 01:32:33.380 ,6,1,0.,24.0,0.,24.0
1979-03-03 01:32:57.380 ,5,1,0.,24.0,0.,24.0
1979-03-03 01:33:21.380 ,4,1,0.,24.0,0.,24.0
1979-03-03 01:33:45.380 ,3,1,0.,24.0,0.,24.0
1979-03-03 01:34:09.380 ,2,1,0.,24.0,0.,24.0
1979-03-03 01:34:33.380 ,1,1,0.,24.0,0.,24.0
1979-03-03 01:34:57.380 ,0,1,0.,24.0,0.,24.0
1979-03-03 01:35:21.380 ,0,1,0.,24.0,0.,24.0
1979-03-03 01:35:45.380 ,1,1,0.,24.0,0.,24.0
1979-03-03 01:36:09.380 ,2,1,0.,24.0,0.,24.0
1979-03-03 01:36:33.380 ,3,1,0.,24.0,0.,24.0
1979-03-03 01:36:57.380 ,4,1,0.,24.0,0.,24.0
1979-03-03 01:37:21.380 ,5,1,0.,24.0,0.,24.0
1979-03-03 01:37:45.380 ,6,1,0.,24.0,0.,24.0
1979-03-03 01:38:09.380 ,7,1,0.,24.0,0.,24.0
1979-03-03 01:38:33.380 ,7,1,0.,24.0,0.,24.0
1979-03-03 01:38:57.380 ,6,1,0.,24.0,0.,24.0
1979-03-03 01:39:21.380 ,5,1,0.,24.0,0.,24.0
1979-03-03 01:39:45.380 ,4,1,0.,24.0,0.,24.0
1979-03-03 01:40:09.380 ,3,1,0.,24.0,0.,24.0
1979-03-03 01:40:33.380 ,2,1,0.,24.0,0.,24.0
1979-03-03 01:40:57.380 ,1,1,0.,24.0,0.,24.0
1979-03-03 01:41:21.380 ,0,1,0.,24.0,0.,24.0
1979-03-03 01:41:45.380 ,0,1,0.,24.0,0.,24.0
1979-03-03 01:42:09.380 ,1,1,0.,24.0,0.,24.0
1979-03-03 01:42:33.380 ,2,1,0.,24.0,0.,24.0
1979-03-03 01:42:57.380 ,3,1,0.,24.0,0.,24.0
1979-03-03 01:43:21.380 ,4,1,0.,24.0,0.,24.0
1979-03-03 01:43:45.380 ,5,1,0.,24.0,0.,24.0
1979-03-03 01:44:09.380 ,6,1,0.,24.0,0.,24.0
1979-03-03 01:44:33.380 ,7,1,0.,24.0,0.,24.0
1979-03-03 01:44:57.380 ,7,1,0.,24.0,0.,24.0
1979-03-03 01:45:21.380 ,6,1,0.,24.0,0.,24.0
1979-03-03 01:45:45.380 ,5,1,0.,24.0,0.,24.0
1979-03-03 01:46:09.380 ,4,1,0.,24.0,0.,24.0
1979-03-03 01:46:33.380 ,3,1,0.,24.0,0.,24.0
1979-03-03 01:46:57.380 ,2,1,0.,24.0,0.,24.0
1979-03-03 01:47:21.380 ,1,1,0.,24.0,0.,24.0
1979-03-03 01:47:45.380 ,0,1,0.,24.0,0.,24.0
1979-03-03 01:48:09.380 ,0,1,0.,24.0,0.,24.0
1979-03-03 01:48:33.380 ,1,1,0.,24.0,0.,24.0
1979-03-03 01:48:57.380 ,2,1,0.,24.0,0.,24.0
1979-03-03 01:49:21.380 ,3,1,0.,24.0,0.,24.0
1979-03-03 01:49:45.380 ,4,1,0.,24.0,0.,24.0
1979-03-03 01:50:09.380 ,5,1,0.,24.0,0.,24.0
1979-03-03 01:50:33.380 ,6,1,0.,24.0,0.,24.0
1979-03-03 01:50:57.380 ,7,1,0.,24.0,0.,24.0
1979-03-03 01:51:21.380 ,7,1,0.,24.0,0.,24.0
1979-03-03 01:51:45.380 ,6,1,0.,24.0,0.,24.0
1979-03-03 01:52:57.380 ,0,0,0.,24.0,0.,24.0
1979-03-03 01:53:21.380 ,2,1,0.,24.0,0.,24.0
1979-03-03 01:53:45.380 ,1,1,0.,24.0,0.,24.0
1979-03-03 01:54:09.380 ,0,1,0.,24.0,0.,24.0
1979-03-03 01:54:33.380 ,0,1,0.,24.0,0.,24.0
1979-03-03 01:54:57.380 ,1,1,0.,24.0,0.,24.0
1979-03-03 01:55:21.380 ,2,1,0.,24.0,0.,24.0
1979-03-03 01:55:45.380 ,3,1,0.,24.0,0.,24.0
1979-03-03 01:56:09.380 ,4,1,0.,24.0,0.,24.0
1979-03-03 01:56:33.380 ,5,1,0.,24.0,0.,24.0
1979-03-03 01:56:57.380 ,6,1,0.,24.0,0.,24.0
1979-03-03 01:57:21.380 ,7,1,0.,24.0,0.,24.0
1979-03-03 01:57:45.380 ,7,1,0.,24.0,0.,24.0
1979-03-03 01:58:09.380 ,6,1,0.,24.0,0.,24.0
1979-03-03 01:58:33.380 ,5,1,0.,24.0,0.,24.0
1979-03-03 01:58:57.380 ,4,1,0.,24.0,0.,24.0
1979-03-03 01:59:21.380 ,3,1,0.,24.0,0.,24.0
1979-03-03 01:59:45.380 ,2,1,0.,24.0,0.,24.0
1979-03-03 02:00:09.380 ,1,1,0.,24.0,0.,24.0
1979-03-03 02:00:33.380 ,0,1,0.,24.0,0.,24.0
1979-03-03 02:00:57.380 ,0,1,0.,24.0,0.,24.0
1979-03-03 02:01:21.380 ,1,1,0.,24.0,0.,24.0
1979-03-03 02:01:45.380 ,2,1,0.,24.0,0.,24.0
1979-03-03 02:02:09.380 ,3,1,0.,24.0,0.,24.0
1979-03-03 02:02:33.380 ,4,1,0.,24.0,0.,24.0
1979-03-03 02:02:57.380 ,5,1,0.,24.0,0.,24.0
1979-03-03 02:03:21.380 ,6,1,0.,24.0,0.,24.0
1979-03-03 02:03:45.380 ,7,1,0.,24.0,0.,24.0
1979-03-03 02:04:09.380 ,7,1,0.,24.0,0.,24.0
1979-03-03 02:04:33.380 ,6,1,0.,24.0,0.,24.0
1979-03-03 02:04:57.380 ,5,1,0.,24.0,0.,24.0
1979-03-03 02:05:21.380 ,4,1,0.,24.0,0.,24.0
1979-03-03 02:05:45.380 ,3,1,0.,24.0,0.,24.0
1979-03-03 02:06:09.380 ,2,1,0.,24.0,0.,24.0
1979-03-03 02:06:33.380 ,1,1,0.,24.0,0.,24.0
1979-03-03 02:06:57.380 ,0,0,,0,,0
1979-03-03 02:07:03.380 ,0,1,0.,24.0,0.,24.0
1979-03-03 02:07:21.380 ,0,1,0.,24.0,0.,24.0
1979-03-03 02:07:45.380 ,1,1,0.,24.0,0.,24.0
1979-03-03 02:08:09.380 ,2,1,0.,24.0,0.,24.0
1979-03-03 02:08:33.380 ,3,1,0.,24.0,0.,24.0
1979-03-03 02:08:57.380 ,4,1,0.,24.0,0.,24.0
1979-03-03 02:09:21.380 ,5,1,0.,24.0,0.,24.0
1979-03-03 02:09:45.380 ,6,1,0.,24.0,0.,24.0
1979-03-03 02:10:09.380 ,7,1,0.,24.0,0.,24.0
1979-03-03 02:10:33.380 ,7,1,0.,24.0,0.,24.0
1979-03-03 02:10:57.380 ,6,1,0.,24.0,0.,24.0
1979-03-03 02:11:21.380 ,5,1,0.,24.0,0.,24.0
1979-03-03 02:11:45.380 ,4,1,0.,24.0,0.,24.0
1979-03-03 02:12:09.380 ,3,1,0.,24.0,0.,24.0
1979-03-03 02:12:33.380 ,2,1,0.,24.0,0.,24.0
1979-03-03 02:12:57.380 ,1,1,0.,24.0,0.,24.0
1979-03-03 02:13:21.380 ,0,1,0.,24.0,0.,24.0
1979-03-03 02:13:45.380 ,0,1,0.,24.0,0.,24.0
1979-03-03 02:14:09.380 ,0,1,0.,24.0,0.,24.0
1979-03-03 02:14:33.380 ,0,1,0.,24.0,0.,24.0
1979-03-03 02:14:57.380 ,3,1,0.,24.0,0.,24.0
1979-03-03 02:15:21.380 ,4,1,0.,24.0,0.,24.0
1979-03-03 02:15:45.380 ,5,1,0.,24.0,0.,24.0
1979-03-03 02:16:09.380 ,6,1,0.,24.0,0.,24.0
1979-03-03 02:16:33.380 ,7,1,0.,24.0,0.,24.0
1979-03-03 02:16:57.380 ,7,1,0.,24.0,0.,24.0
1979-03-03 02:17:21.380 ,6,1,0.,24.0,0.,24.0
1979-03-03 02:17:45.380 ,5,1,0.,24.0,0.,24.0
1979-03-03 02:18:09.380 ,4,1,0.,24.0,0.,24.0
1979-03-03 02:18:33.380 ,3,1,0.,24.0,0.,24.0
1979-03-03 02:18:57.380 ,2,1,0.,24.0,0.,24.0
1979-03-03 02:19:21.380 ,1,1,0.,24.0,0.,24.0
1979-03-03 02:19:45.380 ,0,1,0.,24.0,0.,24.0
1979-03-03 02:20:09.380 ,0,1,0.,24.0,0.,24.0
1979-03-03 02:20:33.380 ,1,1,0.,24.0,0.,24.0
1979-03-03 02:20:57.380 ,2,1,0.,24.0,0.,24.0
1979-03-03 02:21:21.380 ,3,1,0.,24.0,0.,24.0
1979-03-03 02:21:45.380 ,4,1,0.,24.0,0.,24.0
1979-03-03 02:22:09.380 ,5,1,0.,24.0,0.,24.0
1979-03-03 02:22:33.380 ,6,1,0.,24.0,0.,24.0
1979-03-03 02:22:57.380 ,7,1,0.,24.0,0.,24.0
1979-03-03 02:23:21.380 ,7,1,0.,24.0,0.,24.0
1979-03-03 02:23:45.380 ,6,1,0.,24.0,0.,24.0
1979-03-03 02:24:09.380 ,5,1,0.,24.0,0.,24.0
1979-03-03 02:24:33.380 ,4,1,0.,24.0,0.,24.0
1979-03-03 02:24:57.380 ,3,1,0.,24.0,0.,24.0
1979-03-03 02:25:21.380 ,2,1,0.,24.0,0.,24.0
1979-03-03 02:25:45.380 ,1,1,0.,24.0,0.,24.0
1979-03-03 02:26:09.380 ,0,1,0.,24.0,0.,24.0
1979-03-03 02:26:33.380 ,0,1,0.,24.0,0.,24.0
1979-03-03 02:26:57.380 ,1,1,0.,24.0,0.,24.0
1979-03-03 02:28:57.380 ,0,0,0.,24.0,0.,24.0
1979-03-03 02:29:21.380 ,7,1,0.,24.0,0.,24.0
1979-03-03 02:29:45.380 ,7,1,0.,24.0,0.,24.0
1979-03-03 02:30:09.380 ,6,1,0.,24.0,0.,24.0
1979-03-03 02:30:33.380 ,5,1,0.,24.0,0.,24.0
1979-03-03 02:30:57.380 ,4,1,0.,24.0,0.,24.0
1979-03-03 02:31:21.380 ,3,1,0.,24.0,0.,24.0
1979-03-03 02:31:45.380 ,2,1,0.,24.0,0.,24.0
1979-03-03 02:32:09.380 ,1,1,0.,24.0,0.,24.0
1979-03-03 02:32:33.380 ,0,1,0.,24.0,0.,24.0
1979-03-03 02:32:57.380 ,0,1,0.,24.0,0.,24.0
1979-03-03 02:33:21.380 ,1,1,0.,24.0,0.,24.0
1979-03-03 02:33:45.380 ,2,1,0.,24.0,0.,24.0
1979-03-03 02:34:09.380 ,3,1,0.,24.0,0.,24.0
1979-03-03 02:34:33.380 ,4,1,0.,24.0,0.,24.0
1979-03-03 02:34:57.380 ,5,1,0.,24.0,0.,24.0
1979-03-03 02:35:21.380 ,6,1,0.,24.0,0.,24.0
1979-03-03 02:35:45.380 ,7,1,0.,24.0,0.,24.0
1979-03-03 02:36:09.380 ,7,1,0.,24.0,0.,24.0
1979-03-03 02:36:33.380 ,6,1,0.,24.0,0.,24.0
1979-03-03 02:36:57.380 ,5,1,0.,24.0,0.,24.0
1979-03-03 02:37:21.380 ,4,1,0.,24.0,0.,24.0
1979-03-03 02:37:45.380 ,3,1,0.,24.0,0.,24.0
1979-03-03 02:38:09.380 ,2,1,0.,24.0,0.,24.0
1979-03-03 02:38:33.380 ,1,1,0.,24.0,0.,24.0
1979-03-03 02:38:57.380 ,0,1,0.,24.0,0.,24.0
1979-03-03 02:39:21.380 ,0,1,0.,24.0,0.,24.0
1979-03-03 02:39:45.380 ,1,1,0.,24.0,0.,24.0
1979-03-03 02:40:09.380 ,2,1,0.,24.0,0.,24.0
1979-03-03 02:40:33.380 ,3,1,0.,24.0,0.,24.0
1979-03-03 02:40:57.380 ,4,1,0.,24.0,0.,24.0
1979-03-03 02:41:21.380 ,5,1,0.,24.0,0.,24.0
1979-03-03 02:41:45.380 ,6,1,0.,24.0,0.,24.0
1979-03-03 02:42:09.380 ,7,1,0.,24.0,0.,24.0
1979-03-03 02:42:33.380 ,7,1,0.,24.0,0.,24.0
1979-03-03 02:42:57.380 ,6,1,0.,24.0,0.,24.0
1979-03-03 02:43:21.380 ,5,1,0.,24.0,0.,24.0
1979-03-03 02:43:45.380 ,4,1,0.,24.0,0.,24.0
1979-03-03 02:44:09.380 ,3,1,0.,24.0,0.,24.0
1979-03-03 02:44:33.380 ,2,1,0.,24.0,0.,24.0
1979-03-03 02:44:57.380 ,1,1,0.,24.0,0.,24.0
1979-03-03 02:45:21.380 ,0,1,0.,24.0,0.,24.0
1979-03-03 02:45:45.380 ,0,1,0.,24.0,0.,24.0
1979-03-03 02:46:09.380 ,1,1,0.,24.0,0.,24.0
1979-03-03 02:46:33.380 ,2,1,0.,24.0,0.,24.0
1979-03-03 02:46:57.380 ,3,1,0.,24.0,0.,24.0
1979-03-03 02:47:21.380 ,4,1,0.,24.0,0.,24.0
1979-03-03 02:47:45.380 ,5,1,0.,24.0,0.,24.0
1979-03-03 02:48:09.380 ,6,1,0.,24.0,0.,24.0
1979-03-03 02:48:33.380 ,7,1,0.,24.0,0.,24.0
1979-03-03 02:48:57.380 ,7,1,0.,24.0,0.,24.0
1979-03-03 02:49:21.380 ,6,1,0.,24.0,0.,24.0
1979-03-03 02:49:45.380 ,5,1,1.,24.0,0.,24.0
1979-03-03 02:50:09.380 ,4,1,0.,24.0,0.,24.0
1979-03-03 02:50:33.380 ,3,1,0.,24.0,0.,24.0
1979-03-03 02:50:57.380 ,2,1,0.,24.0,0.,24.0
1979-03-03 02:51:21.380 ,1,1,0.,24.0,0.,24.0
1979-03-03 02:51:45.380 ,0,1,0.,24.0,0.,24.0
1979-03-03 02:52:09.380 ,0,1,0.,24.0,0.,24.0
1979-03-03 02:52:33.380 ,1,1,0.,24.0,0.,24.0
1979-03-03 02:52:57.380 ,2,1,1.,24.0,0.,24.0
1979-03-03 02:53:21.380 ,3,1,0.,24.0,0.,24.0
1979-03-03 02:53:45.380 ,4,1,0.,24.0,0.,24.0
1979-03-03 02:54:09.380 ,5,1,0.,24.0,0.,24.0
1979-03-03 02:54:33.380 ,6,1,0.,24.0,0.,24.0
1979-03-03 02:54:57.380 ,7,1,0.,24.0,0.,24.0
1979-03-03 02:55:21.380 ,7,1,0.,24.0,0.,24.0
1979-03-03 02:55:45.380 ,6,1,0.,24.0,0.,24.0
1979-03-03 02:56:09.380 ,5,1,0.,24.0,0.,24.0
1979-03-03 02:56:33.380 ,4,1,0.,24.0,0.,24.0
1979-03-03 02:56:57.380 ,3,1,0.,24.0,0.,24.0
1979-03-03 02:57:21.380 ,2,1,0.,24.0,0.,24.0
1979-03-03 02:57:45.380 ,1,1,0.,24.0,0.,24.0
1979-03-03 02:58:09.380 ,0,1,0.,24.0,0.,24.0
1979-03-03 02:58:33.380 ,0,1,0.,24.0,0.,24.0
1979-03-03 02:58:57.380 ,1,1,0.,24.0,0.,24.0
1979-03-03 02:59:21.380 ,2,1,0.,24.0,0.,24.0
1979-03-03 02:59:45.380 ,3,1,0.,24.0,0.,24.0
1979-03-03 03:00:09.380 ,4,1,0.,24.0,0.,24.0
